ARG1532 SABE-SACO

Flight info

Callsign ARG1532
Flight time 1h 33m
Altitude 34000
Route ATOVO4B ATOVO UW5 ASISA ASISA1Q
Aircraft E190/M-SDE3GILORVW/S

Departure

Time 2026-05-03 21:26
Airport Aeroparque Jorge Newbery (SABE)

Arrival

Time 2026-05-03 23:00
Airport Ingeniero Aeronáutico Ambrosio L.V. Taravella International Airport (SACO)
Time Latitude Longitude Altitude Speed Heading
2026-05-03 20:15 -34.55669 -58.41488 25 ft 0 kts 12°
2026-05-03 20:59 -34.55688 -58.41493 27 ft 4 kts
2026-05-03 20:59 -34.55714 -58.41492 28 ft 4 kts 338°
2026-05-03 20:59 -34.55730 -58.41478 29 ft 0 kts 298°
2026-05-03 21:01 -34.55730 -58.41479 25 ft 1 kts 298°
2026-05-03 21:01 -34.55721 -58.41498 26 ft 5 kts 298°
2026-05-03 21:02 -34.55728 -58.41548 25 ft 9 kts 233°
2026-05-03 21:02 -34.55769 -58.41585 27 ft 8 kts 211°
2026-05-03 21:02 -34.55816 -58.41541 26 ft 12 kts 117°
2026-05-03 21:02 -34.55866 -58.41424 27 ft 19 kts 117°
2026-05-03 21:03 -34.55937 -58.41265 27 ft 24 kts 123°
2026-05-03 21:03 -34.56037 -58.41105 24 ft 20 kts 127°
2026-05-03 21:03 -34.56101 -58.41001 25 ft 16 kts 127°
2026-05-03 21:03 -34.56145 -58.40937 25 ft 0 kts 130°
2026-05-03 21:04 -34.56150 -58.40929 24 ft 3 kts 130°
2026-05-03 21:04 -34.56161 -58.40896 24 ft 2 kts 97°
2026-05-03 21:04 -34.56161 -58.40891 24 ft 0 kts 95°
2026-05-03 21:07 -34.56163 -58.40866 24 ft 6 kts 94°
2026-05-03 21:07 -34.56183 -58.40804 26 ft 10 kts 121°
2026-05-03 21:07 -34.56205 -58.40762 24 ft 0 kts 123°
2026-05-03 21:09 -34.56210 -58.40752 24 ft 3 kts 122°
2026-05-03 21:09 -34.56226 -58.40725 23 ft 3 kts 125°
2026-05-03 21:10 -34.56229 -58.40720 26 ft 0 kts 126°
2026-05-03 21:12 -34.56236 -58.40708 24 ft 5 kts 126°
2026-05-03 21:12 -34.56256 -58.40674 23 ft 0 kts 126°
2026-05-03 21:14 -34.56269 -58.40651 23 ft 6 kts 124°
2026-05-03 21:15 -34.56292 -58.40610 24 ft 0 kts 124°
2026-05-03 21:16 -34.56301 -58.40595 25 ft 4 kts 125°
2026-05-03 21:16 -34.56324 -58.40565 23 ft 0 kts 138°
2026-05-03 21:18 -34.56340 -58.40547 23 ft 7 kts 136°
2026-05-03 21:18 -34.56362 -58.40522 23 ft 6 kts 138°
2026-05-03 21:18 -34.56372 -58.40512 23 ft 0 kts 141°
2026-05-03 21:23 -34.56377 -58.40507 24 ft 3 kts 141°
2026-05-03 21:23 -34.56407 -58.40474 24 ft 4 kts 137°
2026-05-03 21:24 -34.56412 -58.40468 23 ft 4 kts 136°
2026-05-03 21:24 -34.56451 -58.40423 23 ft 12 kts 136°
2026-05-03 21:25 -34.56533 -58.40380 23 ft 14 kts 195°
2026-05-03 21:25 -34.56524 -58.40481 25 ft 12 kts 290°
2026-05-03 21:25 -34.56501 -58.40539 23 ft 0 kts 302°
2026-05-03 21:25 -34.56493 -58.40553 22 ft 8 kts 306°
2026-05-03 21:26 -34.56334 -58.40810 23 ft 74 kts 310°
2026-05-03 21:26 -34.55926 -58.41550 26 ft 135 kts 306°
2026-05-03 21:26 -34.55344 -58.42604 416 ft 160 kts 309°
2026-05-03 21:26 -34.54437 -58.43422 1184 ft 166 kts 339°
2026-05-03 21:27 -34.53338 -58.43956 2362 ft 174 kts 339°
2026-05-03 21:27 -34.52184 -58.44530 3453 ft 189 kts 337°
2026-05-03 21:27 -34.51337 -58.44935 4159 ft 197 kts 337°
2026-05-03 21:27 -34.49472 -58.45760 4957 ft 244 kts 338°
2026-05-03 21:28 -34.47907 -58.46423 4994 ft 230 kts 339°
2026-05-03 21:28 -34.46342 -58.46997 5017 ft 252 kts 343°
2026-05-03 21:28 -34.44601 -58.47500 5830 ft 259 kts 344°
2026-05-03 21:28 -34.42830 -58.47995 6751 ft 264 kts 344°
2026-05-03 21:29 -34.41030 -58.48496 7646 ft 268 kts 343°
2026-05-03 21:29 -34.39821 -58.48832 8229 ft 271 kts 343°
2026-05-03 21:29 -34.37968 -58.49349 9135 ft 274 kts 343°
2026-05-03 21:29 -34.36060 -58.49666 10023 ft 285 kts 359°
2026-05-03 21:30 -34.34060 -58.49036 10525 ft 310 kts 16°
2026-05-03 21:30 -34.32008 -58.48023 11101 ft 323 kts 19°
2026-05-03 21:30 -34.29930 -58.46927 11854 ft 329 kts 19°
2026-05-03 21:30 -34.27817 -58.45789 12625 ft 335 kts 20°
2026-05-03 21:31 -34.25665 -58.44626 13393 ft 341 kts 20°
2026-05-03 21:31 -34.23482 -58.43449 14146 ft 347 kts 20°
2026-05-03 21:31 -34.21254 -58.42251 14843 ft 352 kts 20°
2026-05-03 21:31 -34.19006 -58.41043 15549 ft 357 kts 20°
2026-05-03 21:32 -34.16707 -58.39807 16228 ft 362 kts 20°
2026-05-03 21:32 -34.14370 -58.38636 16857 ft 364 kts 11°
2026-05-03 21:32 -34.11890 -58.38354 17470 ft 356 kts 348°
2026-05-03 21:32 -34.09576 -58.39242 18122 ft 347 kts 324°
2026-05-03 21:33 -34.07814 -58.41138 18717 ft 337 kts 300°
2026-05-03 21:33 -34.06919 -58.43693 19309 ft 331 kts 276°
2026-05-03 21:33 -34.06918 -58.46456 19939 ft 330 kts 263°
2026-05-03 21:33 -34.07199 -58.49212 20583 ft 333 kts 261°
2026-05-03 21:34 -34.07549 -58.51979 21205 ft 336 kts 260°
2026-05-03 21:34 -34.07929 -58.54772 21822 ft 339 kts 259°
2026-05-03 21:34 -34.08328 -58.57586 22411 ft 341 kts 257°
2026-05-03 21:34 -34.09064 -58.60307 22962 ft 344 kts 248°
2026-05-03 21:35 -34.10000 -58.62982 23513 ft 346 kts 247°
2026-05-03 21:35 -34.10935 -58.65654 23890 ft 344 kts 250°
2026-05-03 21:35 -34.11700 -58.68342 23988 ft 340 kts 250°
2026-05-03 21:35 -34.12526 -58.71061 24048 ft 348 kts 250°
2026-05-03 21:36 -34.13370 -58.73805 24066 ft 349 kts 250°
2026-05-03 21:36 -34.13993 -58.76620 24086 ft 349 kts 264°
2026-05-03 21:36 -34.13700 -58.79536 24101 ft 355 kts 283°
2026-05-03 21:36 -34.12922 -58.82366 24096 ft 356 kts 285°
2026-05-03 21:37 -34.12103 -58.85183 24091 ft 356 kts 285°
2026-05-03 21:37 -34.11301 -58.88007 24143 ft 358 kts 285°
2026-05-03 21:37 -34.10517 -58.90855 24630 ft 358 kts 283°
2026-05-03 21:37 -34.09915 -58.93768 25069 ft 358 kts 279°
2026-05-03 21:38 -34.09369 -58.96701 25507 ft 360 kts 278°
2026-05-03 21:38 -34.08843 -58.99658 25945 ft 362 kts 278°
2026-05-03 21:38 -34.08317 -59.02633 26381 ft 364 kts 278°
2026-05-03 21:38 -34.07788 -59.05619 26799 ft 366 kts 278°
2026-05-03 21:39 -34.07254 -59.08629 27211 ft 368 kts 278°
2026-05-03 21:39 -34.06716 -59.11656 27626 ft 370 kts 278°
2026-05-03 21:39 -34.06029 -59.14627 28000 ft 377 kts 286°
2026-05-03 21:39 -34.04809 -59.17504 28384 ft 386 kts 297°
2026-05-03 21:40 -34.03148 -59.20042 28743 ft 395 kts 306°
2026-05-03 21:40 -34.01247 -59.22461 29095 ft 399 kts 307°
2026-05-03 21:40 -33.99335 -59.24882 29437 ft 399 kts 304°
2026-05-03 21:40 -33.97531 -59.27440 29779 ft 401 kts 304°
2026-05-03 21:41 -33.93881 -59.32669 30213 ft 410 kts 303°
2026-05-03 21:41 -33.92053 -59.35298 30592 ft 409 kts 303°
2026-05-03 21:41 -33.90228 -59.37924 30989 ft 408 kts 303°
2026-05-03 21:42 -33.88404 -59.40542 31382 ft 407 kts 303°
2026-05-03 21:42 -33.86589 -59.43147 31768 ft 406 kts 303°
2026-05-03 21:42 -33.84772 -59.45753 32140 ft 406 kts 303°
2026-05-03 21:42 -33.82983 -59.48315 32499 ft 405 kts 302°
2026-05-03 21:43 -33.81172 -59.50907 32862 ft 404 kts 302°
2026-05-03 21:43 -33.79366 -59.53490 33213 ft 403 kts 302°
2026-05-03 21:43 -33.77563 -59.56066 33555 ft 403 kts 302°
2026-05-03 21:43 -33.75761 -59.58639 33883 ft 402 kts 302°
2026-05-03 21:44 -33.73957 -59.61212 33988 ft 400 kts 302°
2026-05-03 21:44 -33.72167 -59.63771 34028 ft 399 kts 302°
2026-05-03 21:44 -33.68550 -59.68914 34066 ft 405 kts 302°
2026-05-03 21:45 -33.64914 -59.74075 34051 ft 405 kts 302°
2026-05-03 21:45 -33.61275 -59.79236 34060 ft 405 kts 302°
2026-05-03 21:46 -33.57632 -59.84392 34051 ft 405 kts 302°
2026-05-03 21:46 -33.53991 -59.89541 34056 ft 405 kts 302°
2026-05-03 21:47 -33.50371 -59.94652 34050 ft 405 kts 302°
2026-05-03 21:47 -33.46718 -59.99800 34052 ft 405 kts 302°
2026-05-03 21:48 -33.43073 -60.04932 34051 ft 405 kts 302°
2026-05-03 21:48 -33.39421 -60.10065 34046 ft 405 kts 302°
2026-05-03 21:49 -33.35770 -60.15190 34047 ft 405 kts 302°
2026-05-03 21:49 -33.32118 -60.20311 34043 ft 404 kts 302°
2026-05-03 21:50 -33.28463 -60.25427 34044 ft 404 kts 303°
2026-05-03 21:50 -33.24809 -60.30534 34042 ft 404 kts 303°
2026-05-03 21:51 -33.21152 -60.35638 34040 ft 404 kts 303°
2026-05-03 21:51 -33.17498 -60.40732 34038 ft 404 kts 303°
2026-05-03 21:52 -33.13859 -60.45797 34032 ft 404 kts 303°
2026-05-03 21:52 -33.10196 -60.50888 34044 ft 404 kts 303°
2026-05-03 21:53 -33.06533 -60.55974 34035 ft 404 kts 303°
2026-05-03 21:53 -33.02864 -60.61059 34046 ft 404 kts 303°
2026-05-03 21:54 -32.99194 -60.66138 34045 ft 404 kts 303°
2026-05-03 21:54 -32.95520 -60.71218 34046 ft 405 kts 303°
2026-05-03 21:55 -32.91914 -60.76332 34045 ft 401 kts 300°
2026-05-03 21:55 -32.88750 -60.81766 34048 ft 396 kts 294°
2026-05-03 21:56 -32.85934 -60.87395 34046 ft 395 kts 293°
2026-05-03 21:56 -32.83149 -60.93034 34045 ft 395 kts 293°
2026-05-03 21:57 -32.80363 -60.98669 34040 ft 395 kts 294°
2026-05-03 21:57 -32.77592 -61.04259 34036 ft 395 kts 294°
2026-05-03 21:58 -32.74800 -61.09884 34032 ft 395 kts 294°
2026-05-03 21:58 -32.72007 -61.15502 34026 ft 395 kts 294°
2026-05-03 21:59 -32.69208 -61.21122 34028 ft 395 kts 294°
2026-05-03 21:59 -32.66409 -61.26736 34028 ft 395 kts 294°
2026-05-03 22:00 -32.63608 -61.32343 34025 ft 395 kts 294°
2026-05-03 22:00 -32.60803 -61.37950 34030 ft 395 kts 294°
2026-05-03 22:01 -32.58003 -61.43540 34025 ft 394 kts 294°
2026-05-03 22:01 -32.55350 -61.48829 34020 ft 395 kts 294°
2026-05-03 22:02 -32.52541 -61.54419 34023 ft 394 kts 294°
2026-05-03 22:02 -32.49728 -61.60008 34015 ft 394 kts 294°
2026-05-03 22:03 -32.46919 -61.65582 34020 ft 394 kts 294°
2026-05-03 22:03 -32.44109 -61.71149 34016 ft 394 kts 294°
2026-05-03 22:04 -32.41313 -61.76682 34020 ft 393 kts 294°
2026-05-03 22:04 -32.38501 -61.82236 34008 ft 393 kts 294°
2026-05-03 22:05 -32.35687 -61.87781 34020 ft 394 kts 294°
2026-05-03 22:05 -32.32869 -61.93337 34005 ft 393 kts 294°
2026-05-03 22:06 -32.30048 -61.98890 34020 ft 393 kts 295°
2026-05-03 22:06 -32.27231 -62.04428 34010 ft 393 kts 295°
2026-05-03 22:07 -32.24410 -62.09965 34014 ft 393 kts 295°
2026-05-03 22:07 -32.21586 -62.15501 34019 ft 393 kts 295°
2026-05-03 22:08 -32.18760 -62.21031 34008 ft 393 kts 295°
2026-05-03 22:08 -32.15931 -62.26559 34016 ft 394 kts 295°
2026-05-03 22:09 -32.13099 -62.32084 34011 ft 393 kts 295°
2026-05-03 22:10 -32.08845 -62.40369 34016 ft 394 kts 295°
2026-05-03 22:10 -32.06006 -62.45889 34014 ft 394 kts 295°
2026-05-03 22:11 -32.03182 -62.51370 34015 ft 394 kts 295°
2026-05-03 22:11 -32.00337 -62.56885 34013 ft 394 kts 295°
2026-05-03 22:12 -31.97489 -62.62400 34012 ft 394 kts 295°
2026-05-03 22:12 -31.96067 -62.65147 33875 ft 396 kts 295°
2026-05-03 22:12 -31.94635 -62.67915 33335 ft 394 kts 295°
2026-05-03 22:12 -31.93209 -62.70667 32799 ft 394 kts 295°
2026-05-03 22:13 -31.91780 -62.73426 32297 ft 396 kts 296°
2026-05-03 22:13 -31.90337 -62.76206 31799 ft 399 kts 296°
2026-05-03 22:13 -31.88889 -62.78996 31312 ft 401 kts 296°
2026-05-03 22:13 -31.87431 -62.81802 30842 ft 403 kts 296°
2026-05-03 22:14 -31.85966 -62.84619 30369 ft 405 kts 296°
2026-05-03 22:14 -31.84496 -62.87447 29881 ft 407 kts 296°
2026-05-03 22:14 -31.83019 -62.90283 29337 ft 406 kts 296°
2026-05-03 22:14 -31.81542 -62.93116 28798 ft 404 kts 296°
2026-05-03 22:15 -31.80083 -62.95913 28274 ft 400 kts 296°
2026-05-03 22:15 -31.79124 -62.97752 27932 ft 398 kts 296°
2026-05-03 22:15 -31.77679 -63.00521 27411 ft 396 kts 296°
2026-05-03 22:15 -31.76245 -63.03267 26904 ft 393 kts 296°
2026-05-03 22:16 -31.74816 -63.06000 26410 ft 391 kts 296°
2026-05-03 22:16 -31.73290 -63.08639 25924 ft 393 kts 304°
2026-05-03 22:16 -31.71360 -63.10933 25441 ft 398 kts 315°
2026-05-03 22:16 -31.69064 -63.12775 24967 ft 403 kts 325°
2026-05-03 22:17 -31.66417 -63.13940 24496 ft 414 kts 344°
2026-05-03 22:17 -31.63524 -63.14171 24053 ft 418 kts 354°
2026-05-03 22:17 -31.60616 -63.14119 23613 ft 417 kts 356°
2026-05-03 22:17 -31.57723 -63.14002 23090 ft 414 kts 357°
2026-05-03 22:18 -31.54857 -63.13866 22571 ft 410 kts 357°
2026-05-03 22:18 -31.52017 -63.13724 22056 ft 406 kts 357°
2026-05-03 22:18 -31.49193 -63.13584 21541 ft 403 kts 358°
2026-05-03 22:18 -31.46404 -63.13451 21052 ft 400 kts 357°
2026-05-03 22:19 -31.43638 -63.13324 20565 ft 397 kts 357°
2026-05-03 22:19 -31.40888 -63.13203 20084 ft 394 kts 357°
2026-05-03 22:19 -31.38160 -63.13088 19601 ft 390 kts 357°
2026-05-03 22:19 -31.35455 -63.12980 19145 ft 387 kts 357°
2026-05-03 22:20 -31.32775 -63.12880 18683 ft 385 kts 357°
2026-05-03 22:20 -31.30103 -63.12786 18218 ft 382 kts 357°
2026-05-03 22:20 -31.27489 -63.12700 17707 ft 379 kts 357°
2026-05-03 22:20 -31.24841 -63.12622 17190 ft 375 kts 357°
2026-05-03 22:21 -31.22274 -63.12555 16696 ft 371 kts 357°
2026-05-03 22:21 -31.19702 -63.12497 16197 ft 368 kts 357°
2026-05-03 22:21 -31.17150 -63.12449 15711 ft 365 kts 357°
2026-05-03 22:21 -31.14628 -63.12410 15234 ft 361 kts 357°
2026-05-03 22:22 -31.12121 -63.12380 14763 ft 358 kts 357°
2026-05-03 22:22 -31.09642 -63.12358 14301 ft 355 kts 357°
2026-05-03 22:22 -31.07178 -63.12343 13844 ft 352 kts 357°
2026-05-03 22:22 -31.04742 -63.12338 13334 ft 349 kts 357°
2026-05-03 22:23 -31.02323 -63.12341 12827 ft 346 kts 357°
2026-05-03 22:23 -30.99924 -63.12352 12330 ft 343 kts 357°
2026-05-03 22:23 -30.97559 -63.12417 12115 ft 337 kts 351°
2026-05-03 22:23 -30.95363 -63.13264 12043 ft 333 kts 327°
2026-05-03 22:24 -30.93492 -63.14846 12040 ft 333 kts 319°
2026-05-03 22:24 -30.91710 -63.16564 12028 ft 332 kts 317°
2026-05-03 22:24 -30.89957 -63.18321 12020 ft 332 kts 317°
2026-05-03 22:24 -30.88218 -63.20090 12011 ft 332 kts 316°
2026-05-03 22:25 -30.86485 -63.21861 12015 ft 332 kts 316°
2026-05-03 22:25 -30.84754 -63.23633 12019 ft 332 kts 316°
2026-05-03 22:25 -30.83021 -63.25405 12015 ft 332 kts 316°
2026-05-03 22:25 -30.81288 -63.27176 12013 ft 331 kts 316°
2026-05-03 22:26 -30.79554 -63.28945 12017 ft 331 kts 316°
2026-05-03 22:26 -30.77823 -63.30711 12018 ft 331 kts 316°
2026-05-03 22:26 -30.76089 -63.32479 12012 ft 332 kts 316°
2026-05-03 22:26 -30.74354 -63.34247 12014 ft 332 kts 316°
2026-05-03 22:27 -30.72621 -63.36011 12017 ft 332 kts 316°
2026-05-03 22:27 -30.70883 -63.37776 12017 ft 332 kts 317°
2026-05-03 22:27 -30.69144 -63.39541 12010 ft 332 kts 316°
2026-05-03 22:27 -30.67591 -63.41493 12001 ft 329 kts 300°
2026-05-03 22:28 -30.66845 -63.43968 12015 ft 326 kts 278°
2026-05-03 22:28 -30.66607 -63.46588 12029 ft 326 kts 274°
2026-05-03 22:28 -30.66469 -63.49218 12015 ft 326 kts 272°
2026-05-03 22:28 -30.66365 -63.51846 12009 ft 326 kts 272°
2026-05-03 22:29 -30.66275 -63.54477 12013 ft 326 kts 271°
2026-05-03 22:29 -30.66190 -63.57105 12017 ft 326 kts 271°
2026-05-03 22:29 -30.66106 -63.59703 12014 ft 326 kts 271°
2026-05-03 22:29 -30.66020 -63.62334 12014 ft 325 kts 271°
2026-05-03 22:30 -30.65933 -63.64959 12014 ft 326 kts 271°
2026-05-03 22:30 -30.65844 -63.67588 12015 ft 326 kts 272°
2026-05-03 22:30 -30.65754 -63.70217 12011 ft 326 kts 272°
2026-05-03 22:30 -30.65661 -63.72848 12016 ft 326 kts 272°
2026-05-03 22:31 -30.65567 -63.75479 12020 ft 326 kts 272°
2026-05-03 22:31 -30.65472 -63.78105 12015 ft 326 kts 272°
2026-05-03 22:31 -30.65375 -63.80735 12009 ft 326 kts 272°
2026-05-03 22:31 -30.65276 -63.83367 12018 ft 326 kts 272°
2026-05-03 22:32 -30.65177 -63.85992 12014 ft 326 kts 272°
2026-05-03 22:32 -30.65075 -63.88619 12013 ft 326 kts 272°
2026-05-03 22:32 -30.64972 -63.91251 12014 ft 326 kts 272°
2026-05-03 22:32 -30.64867 -63.93874 12017 ft 325 kts 272°
2026-05-03 22:33 -30.64760 -63.96499 12016 ft 326 kts 272°
2026-05-03 22:33 -30.64651 -63.99134 12013 ft 326 kts 272°
2026-05-03 22:33 -30.64543 -64.01727 12010 ft 326 kts 272°
2026-05-03 22:33 -30.64430 -64.04389 12015 ft 326 kts 272°
2026-05-03 22:34 -30.64319 -64.07022 12020 ft 326 kts 272°
2026-05-03 22:34 -30.64207 -64.09618 12011 ft 326 kts 272°
2026-05-03 22:34 -30.64092 -64.12253 12010 ft 327 kts 272°
2026-05-03 22:34 -30.63975 -64.14922 12014 ft 327 kts 272°
2026-05-03 22:35 -30.63860 -64.17552 12010 ft 327 kts 272°
2026-05-03 22:35 -30.63743 -64.20186 12011 ft 326 kts 272°
2026-05-03 22:35 -30.63626 -64.22787 12006 ft 327 kts 272°
2026-05-03 22:35 -30.63508 -64.25418 12011 ft 327 kts 272°
2026-05-03 22:36 -30.63390 -64.28056 12010 ft 327 kts 272°
2026-05-03 22:36 -30.63270 -64.30686 12009 ft 327 kts 272°
2026-05-03 22:36 -30.63253 -64.33322 12004 ft 327 kts 262°
2026-05-03 22:36 -30.64039 -64.35786 11823 ft 329 kts 237°
2026-05-03 22:37 -30.65668 -64.37627 11575 ft 332 kts 213°
2026-05-03 22:37 -30.67821 -64.38569 11466 ft 326 kts 196°
2026-05-03 22:37 -30.69987 -64.39136 11299 ft 313 kts 193°
2026-05-03 22:37 -30.72101 -64.39622 11131 ft 313 kts 193°
2026-05-03 22:38 -30.74205 -64.40081 11054 ft 301 kts 192°
2026-05-03 22:38 -30.76231 -64.40514 11014 ft 295 kts 192°
2026-05-03 22:38 -30.78256 -64.40944 10997 ft 296 kts 192°
2026-05-03 22:38 -30.80288 -64.41376 11002 ft 297 kts 192°
2026-05-03 22:39 -30.82322 -64.41809 11008 ft 298 kts 192°
2026-05-03 22:39 -30.84357 -64.42246 10999 ft 297 kts 192°
2026-05-03 22:39 -30.86387 -64.42687 10997 ft 297 kts 192°
2026-05-03 22:39 -30.88418 -64.43129 11007 ft 297 kts 192°
2026-05-03 22:40 -30.90455 -64.43575 11011 ft 298 kts 193°
2026-05-03 22:40 -30.92488 -64.44024 10998 ft 297 kts 193°
2026-05-03 22:40 -30.94520 -64.44475 10996 ft 297 kts 192°
2026-05-03 22:40 -30.96554 -64.44931 10905 ft 298 kts 193°
2026-05-03 22:41 -30.98589 -64.45387 10680 ft 298 kts 193°
2026-05-03 22:41 -31.00620 -64.45846 10418 ft 297 kts 193°
2026-05-03 22:41 -31.02647 -64.46306 10176 ft 297 kts 193°
2026-05-03 22:41 -31.04670 -64.46769 10083 ft 295 kts 193°
2026-05-03 22:42 -31.06680 -64.47233 10041 ft 294 kts 193°
2026-05-03 22:42 -31.08693 -64.47699 10015 ft 295 kts 193°
2026-05-03 22:42 -31.10705 -64.48168 9999 ft 295 kts 193°
2026-05-03 22:42 -31.12721 -64.48639 9990 ft 295 kts 193°
2026-05-03 22:43 -31.14732 -64.49110 9993 ft 295 kts 193°
2026-05-03 22:43 -31.16745 -64.49583 10001 ft 295 kts 193°
2026-05-03 22:43 -31.18763 -64.50059 9994 ft 296 kts 193°
2026-05-03 22:43 -31.20777 -64.50538 9991 ft 296 kts 193°
2026-05-03 22:44 -31.22790 -64.51017 9995 ft 295 kts 193°
2026-05-03 22:44 -31.24805 -64.51496 9993 ft 296 kts 193°
2026-05-03 22:44 -31.26823 -64.51976 9989 ft 295 kts 193°
2026-05-03 22:44 -31.28836 -64.52459 9993 ft 295 kts 193°
2026-05-03 22:45 -31.30822 -64.52936 9996 ft 295 kts 193°
2026-05-03 22:45 -31.32836 -64.53421 9991 ft 296 kts 193°
2026-05-03 22:45 -31.34850 -64.53907 9953 ft 295 kts 193°
2026-05-03 22:45 -31.36858 -64.54394 9429 ft 295 kts 193°
2026-05-03 22:46 -31.38858 -64.54882 8943 ft 293 kts 193°
2026-05-03 22:46 -31.40850 -64.55373 8449 ft 292 kts 193°
2026-05-03 22:46 -31.42827 -64.55860 7986 ft 289 kts 193°
2026-05-03 22:46 -31.44791 -64.56350 7520 ft 288 kts 193°
2026-05-03 22:47 -31.46757 -64.56736 7059 ft 288 kts 181°
2026-05-03 22:47 -31.48691 -64.56208 6607 ft 288 kts 152°
2026-05-03 22:47 -31.50172 -64.54685 6185 ft 284 kts 123°
2026-05-03 22:47 -31.51130 -64.52662 6077 ft 282 kts 115°
2026-05-03 22:48 -31.51984 -64.50597 6035 ft 282 kts 114°
2026-05-03 22:48 -31.52689 -64.48467 5987 ft 280 kts 101°
2026-05-03 22:48 -31.52981 -64.46213 5971 ft 280 kts 95°
2026-05-03 22:48 -31.53185 -64.43946 5992 ft 279 kts 94°
2026-05-03 22:49 -31.53358 -64.41681 5990 ft 279 kts 92°
2026-05-03 22:49 -31.53382 -64.39411 5985 ft 278 kts 86°
2026-05-03 22:49 -31.53273 -64.37155 5989 ft 277 kts 84°
2026-05-03 22:49 -31.53123 -64.34896 6003 ft 278 kts 83°
2026-05-03 22:50 -31.52960 -64.32638 5991 ft 278 kts 83°
2026-05-03 22:50 -31.52792 -64.30383 5983 ft 278 kts 83°
2026-05-03 22:50 -31.52621 -64.28126 5992 ft 278 kts 83°
2026-05-03 22:50 -31.52447 -64.25874 5999 ft 278 kts 83°
2026-05-03 22:51 -31.52270 -64.23616 5995 ft 278 kts 83°
2026-05-03 22:51 -31.52091 -64.21363 5986 ft 277 kts 83°
2026-05-03 22:51 -31.51910 -64.19112 5850 ft 277 kts 83°
2026-05-03 22:51 -31.51727 -64.16869 5616 ft 276 kts 83°
2026-05-03 22:52 -31.51545 -64.14638 5352 ft 274 kts 83°
2026-05-03 22:52 -31.51364 -64.12416 5127 ft 273 kts 83°
2026-05-03 22:52 -31.51184 -64.10218 5050 ft 270 kts 83°
2026-05-03 22:52 -31.51001 -64.08022 5010 ft 271 kts 83°
2026-05-03 22:53 -31.50818 -64.05828 4998 ft 271 kts 83°
2026-05-03 22:53 -31.50609 -64.03664 4984 ft 270 kts 77°
2026-05-03 22:53 -31.49791 -64.01723 4981 ft 267 kts 46°
2026-05-03 22:53 -31.48258 -64.00571 4994 ft 265 kts 15°
2026-05-03 22:54 -31.46445 -64.00525 5016 ft 264 kts 345°
2026-05-03 22:54 -31.44871 -64.01601 5019 ft 265 kts 314°
2026-05-03 22:54 -31.43999 -64.03479 5009 ft 266 kts 283°
2026-05-03 22:54 -31.43838 -64.05567 4999 ft 249 kts 272°
2026-05-03 22:55 -31.43819 -64.07509 5015 ft 228 kts 271°
2026-05-03 22:55 -31.43821 -64.09263 5013 ft 203 kts 272°
2026-05-03 22:55 -31.43778 -64.10842 4973 ft 185 kts 275°
2026-05-03 22:55 -31.43670 -64.12245 4973 ft 162 kts 278°
2026-05-03 22:56 -31.43501 -64.13533 4976 ft 159 kts 282°
2026-05-03 22:56 -31.43257 -64.14800 4983 ft 159 kts 286°
2026-05-03 22:56 -31.42897 -64.16021 4974 ft 159 kts 302°
2026-05-03 22:56 -31.42247 -64.16985 4944 ft 147 kts 315°
2026-05-03 22:57 -31.41461 -64.17786 4575 ft 150 kts 325°
2026-05-03 22:57 -31.40610 -64.18495 4178 ft 143 kts 327°
2026-05-03 22:57 -31.39815 -64.19077 3819 ft 129 kts 334°
2026-05-03 22:57 -31.39027 -64.19540 3460 ft 123 kts 337°
2026-05-03 22:58 -31.38259 -64.19933 3088 ft 119 kts 341°
2026-05-03 22:58 -31.37478 -64.20242 2688 ft 117 kts 347°
2026-05-03 22:58 -31.36718 -64.20478 2375 ft 109 kts 351°
2026-05-03 22:58 -31.35926 -64.20639 2248 ft 118 kts 355°
2026-05-03 22:59 -31.35149 -64.20737 2137 ft 108 kts 359°
2026-05-03 22:59 -31.34392 -64.20771 1985 ft 110 kts
2026-05-03 22:59 -31.33613 -64.20783 1843 ft 113 kts 359°
2026-05-03 22:59 -31.32837 -64.20798 1672 ft 110 kts
2026-05-03 23:00 -31.32093 -64.20818 1543 ft 98 kts
2026-05-03 23:00 -31.31558 -64.20824 1554 ft 53 kts 359°
2026-05-03 23:00 -31.31351 -64.20826 1558 ft 18 kts
2026-05-03 23:00 -31.31262 -64.20826 1560 ft 21 kts 359°
2026-05-03 23:01 -31.31018 -64.20832 1567 ft 34 kts 359°
2026-05-03 23:01 -31.30739 -64.20838 1576 ft 45 kts 359°
2026-05-03 23:01 -31.30512 -64.20840 1584 ft 51 kts
2026-05-03 23:01 -31.29967 -64.20849 1616 ft 67 kts 359°
2026-05-03 23:02 -31.29699 -64.20852 1610 ft 38 kts
2026-05-03 23:02 -31.29626 -64.20885 1618 ft 11 kts 202°
2026-05-03 23:02 -31.29818 -64.20854 1605 ft 44 kts 177°
2026-05-03 23:02 -31.30214 -64.20846 1594 ft 67 kts 179°
2026-05-03 23:03 -31.30731 -64.20842 1576 ft 83 kts 185°
2026-05-03 23:03 -31.31279 -64.20826 1560 ft 56 kts 181°
2026-05-03 23:03 -31.31464 -64.20938 1558 ft 12 kts 265°
2026-05-03 23:03 -31.31466 -64.20965 1559 ft 0 kts 266°
2026-05-03 23:04 -31.31468 -64.21000 1559 ft 9 kts 263°
2026-05-03 23:04 -31.31545 -64.21039 1557 ft 19 kts 186°
2026-05-03 23:05 -31.31627 -64.21056 1555 ft 1 kts 224°
2026-05-03 23:05 -31.31619 -64.21075 1555 ft 3 kts 308°
2026-05-03 23:05 -31.31585 -64.21115 1556 ft 9 kts 299°
2026-05-03 23:05 -31.31583 -64.21170 1556 ft 0 kts 246°